Location: Chaumontel
(49.1247°N, 2.4324°E)
Time: 07:53:23
(UTC+00:00)

HTV-X1 - Visible Passes

Search period start: 21 May 2026 00:00
Search period end: 31 May 2026 00:00
Orbit: 372 x 382 km, 51.6° (Epoch: 20 May)

Date Brightness Start Highest point End Pass type
(mag) Time Alt. Az. Time Alt. Az. Time Alt. Az.
21 May ? 20:13:25 10° WNW 20:16:31 82° NNE 20:19:36 10° ESE visible
21 May ? 21:49:36 10° W 21:52:08 23° SW 21:52:09 23° SW visible
22 May ? 20:48:11 10° WNW 20:51:08 43° SSW 20:53:13 17° SE visible
23 May ? 21:23:28 10° W 21:25:29 16° SW 21:26:21 15° SSW visible
24 May ? 20:21:44 10° W 20:24:29 30° SSW 20:27:14 10° SSE visible
25 May ? 20:57:41 10° WSW 20:58:39 11° SW 20:59:38 10° SSW visible
